Starlink 35234

operational
NORAD ID: 65601 Int'l Des: 2025-207 Owner: SPXS Country: US Constellation: starlink
NOTLE

关于 Starlink 35234

正在加载描述...

实时位置

正在加载3D地球...

即将过境

高度历史

Altitude vs Time

uPlot chart will show altitude changes over time

两行轨道根数

1 65601U 25207K 25308.44034786 .00023416 00000-0 60024-3 0 9999
2 65601 97.6047 12.6983 0002984 107.4870 252.6701 15.39366796 9256
Epoch: Nov 4, 2025 • Age: 14 hours

当前状态

高度 452.5 km
速度 7.64 km/s
星下点 -5.02°S, 39.34°W
发射日期 Sep 13, 2025
运行时间 0.1 years
类型 internet

技术详情

分类 Payload
质量 575.00 kg
干质量 530.00 kg
总质量 575.00 kg
长度 0.30 m
直径 4.10 m
跨度 29.00 m
形状 Box + pan
制造商 SPXS
平台类型 Starlink V2MO
阶段状态 In Orbit
所有者/国家 SPXS/US

大型星座

Loading constellations...